Notices

What's New in latest Release from April 7th, 2021:

- Updated Glossary, including Speed of Maximum Gust, and Total Hourly Precipitation

- Updated national and regional climate services offices contacts and prices information

- Addition of station inventory lists for 1981-2010, 1971-2000, and 1961-1990 Normals.

If you haven't already, please take our survey and provide feedback about our website: https://eccc.sondage-survey.ca/f/LanguageSelection.aspx?s=442ca660-fcf1-47c0-95a9-59707d6fd709

Hourly Data Report for September 14, 2015

IQALUIT CLIMATE
NUNAVUT

63°44'50.000" N
68°32'40.000" W
33.50 m
2402592
71321
XFB

Download Data

Hourly Data (September 2015)
Hourly Data Report for September 14, 2015
TIME
LST
Temp Definition
°C
Dew Point Definition
°C
Rel Hum Definition
%
Precip. Amount Definition
mm

Wind Dir Definition
10's deg

Wind Spd Definition
km/h
Visibility Definition
km
Stn Press Definition
kPa
Hmdx Definition


Wind Chill Definition


Weather Definition


00:00 3.2 2.6 96 0.0 15 28   100.08     LegendNANA
01:00 3.0 2.3 95 0.0 16 24   100.05     LegendNANA
02:00 3.6 2.8 95 0.0 14 26   100.04     LegendNANA
03:00 4.2 3.1 93 0.0 14 30   100.04     LegendNANA
04:00 4.3 2.9 91 0.0 14 30   100.01     LegendNANA
05:00 2.9 1.3 89 0.0 16 23   99.99     LegendNANA
06:00 2.8 1.6 92 0.0 16 23   99.98     LegendNANA
07:00 3.0 1.8 92 0.0 16 24   99.92     LegendNANA
08:00 3.0 2.2 95 0.0 17 25   99.93     LegendNANA
09:00 3.6 2.7 94 0.0 16 20   99.89     LegendNANA
10:00 3.7 2.5 92 0.0 16 22   99.88     LegendNANA
11:00 3.8 2.7 93 0.0 17 21   99.89     LegendNANA
12:00 2.5 2.1 97 0.0 16 19   99.83     LegendNANA
13:00 2.6 2.3 98 1.4 14 16   99.82     LegendNANA
14:00 2.3 2.0 98 2.0 14 19   99.78     LegendNANA
15:00 2.2 2.0 98 1.6 14 19   99.75     LegendNANA
16:00 2.1 1.8 99 1.0 15 13   99.74     LegendNANA
17:00 2.1 1.9 99 1.2 15 18   99.72     LegendNANA
18:00 1.8 1.6 99 0.2 16 15   99.76     LegendNANA
19:00 1.3 1.2 99 0.5 16 7   99.82     LegendNANA
20:00 1.5 1.4 99 0.0 12 4   99.88     LegendNANA
21:00 1.7 1.6 100 0.0 31 2   99.94     LegendNANA
22:00 2.0 1.9 99 0.0 30 7   100.03     LegendNANA
23:00 2.1 2.0 100 0.0 33 10   100.09     LegendNANA

Notes on Data Quality.

Legend

  • E = Estimated
  • M = Missing
  • NA = Not Available*
  • [empty] = Indicates an unobserved value
Date modified: